Time,TemperatureF,DewpointF,PressureIn,WindDirection,WindDirectionDegrees,WindSpeedMPH,WindSpeedGustMPH,Humidity,HourlyPrecipIn,Conditions,Clouds,dailyrainin,SoftwareType,DateUTC
2013-02-11 00:02:00,47.0,-99.9,29.80,South,171,11.0,24.0,-999,-99.99,,,-99.99,,2013-02-11 05:02:00,
2013-02-11 00:12:00,47.0,-99.9,-100.00,South,175,10.0,21.0,-999,-99.99,,,-99.99,,2013-02-11 05:12:00,
2013-02-11 00:22:00,47.0,-99.9,29.79,South,175,11.0,23.0,-999,-99.99,,,-99.99,,2013-02-11 05:22:00,
2013-02-11 00:32:00,47.0,-99.9,-100.00,South,175,13.0,23.0,-999,-99.99,,,-99.99,,2013-02-11 05:32:00,
2013-02-11 00:42:00,47.0,-99.9,-100.00,South,171,13.0,25.0,-999,-99.99,,,-99.99,,2013-02-11 05:42:00,
2013-02-11 00:53:00,-999.0,-99.9,-100.00,South,177,11.0,22.0,-999,-99.99,,,-99.99,,2013-02-11 05:53:00,
2013-02-11 01:12:00,48.0,-99.9,-100.00,SSW,193,13.0,26.0,-999,-99.99,,,-99.99,,2013-02-11 06:12:00,
2013-02-11 01:22:00,-999.0,-99.9,-100.00,South,186,12.0,23.0,-999,-99.99,,,-99.99,,2013-02-11 06:22:00,
2013-02-11 01:42:00,47.0,-99.9,29.79,South,180,11.0,19.0,-999,-99.99,,,-99.99,,2013-02-11 06:42:00,
2013-02-11 02:02:00,47.0,-99.9,29.78,South,181,11.0,21.0,-999,-99.99,,,-99.99,,2013-02-11 07:02:00,
2013-02-11 02:12:00,47.0,-99.9,-100.00,South,184,8.0,20.0,-999,-99.99,,,-99.99,,2013-02-11 07:12:00,
2013-02-11 02:32:00,47.0,-99.9,29.78,South,186,10.0,17.0,-999,-99.99,,,-99.99,,2013-02-11 07:32:00,
2013-02-11 02:52:00,47.0,-99.9,29.77,SSE,168,8.0,20.0,-999,-99.99,,,-99.99,,2013-02-11 07:52:00,
2013-02-11 03:01:00,46.0,-99.9,29.76,South,183,10.0,19.0,-999,-99.99,,,-99.99,,2013-02-11 08:01:00,
2013-02-11 03:11:00,46.0,-99.9,29.75,South,181,9.0,21.0,-999,-99.99,,,-99.99,,2013-02-11 08:11:00,
2013-02-11 03:22:00,46.0,-99.9,29.75,South,191,11.0,21.0,-999,-99.99,,,-99.99,,2013-02-11 08:22:00,
2013-02-11 03:42:00,46.0,-99.9,-100.00,South,180,12.0,21.0,-999,-99.99,,,-99.99,,2013-02-11 08:42:00,
2013-02-11 04:12:00,46.0,-99.9,-100.00,South,190,12.0,22.0,-999,-99.99,,,-99.99,,2013-02-11 09:12:00,
2013-02-11 04:22:00,-999.0,-99.9,-100.00,South,178,7.0,18.0,-999,-99.99,,,-99.99,,2013-02-11 09:22:00,
2013-02-11 05:02:00,47.0,-99.9,29.73,South,191,9.0,15.0,-999,-99.99,,,-99.99,,2013-02-11 10:02:00,
2013-02-11 05:11:00,47.0,-99.9,29.73,SSW,195,6.0,19.0,-999,-99.99,,,-99.99,,2013-02-11 10:11:00,
2013-02-11 05:22:00,-999.0,-99.9,-100.00,SSW,201,10.0,18.0,-999,-99.99,,,-99.99,,2013-02-11 10:22:00,
2013-02-11 05:42:00,48.0,-99.9,29.73,SSW,208,13.0,23.0,-999,-99.99,,,-99.99,,2013-02-11 10:42:00,
2013-02-11 06:11:00,-999.0,-99.9,-100.00,SSW,194,8.0,17.0,-999,-99.99,,,-99.99,,2013-02-11 11:11:00,
2013-02-11 06:32:00,48.0,-99.9,29.71,SSW,200,8.0,19.0,-999,-99.99,,,-99.99,,2013-02-11 11:32:00,
2013-02-11 06:42:00,48.0,-99.9,29.71,South,190,7.0,15.0,-999,-99.99,,,-99.99,,2013-02-11 11:42:00,
2013-02-11 06:52:00,-999.0,-99.9,-100.00,SSW,194,9.0,17.0,-999,-99.99,,,-99.99,,2013-02-11 11:52:00,
2013-02-11 07:03:00,48.0,-99.9,29.70,SSW,194,7.0,19.0,-999,-99.99,,,-99.99,,2013-02-11 12:03:00,
2013-02-11 07:12:00,48.0,-99.9,29.70,South,183,9.0,17.0,-999,-99.99,,,-99.99,,2013-02-11 12:12:00,
2013-02-11 07:22:00,-999.0,-99.9,-100.00,SSW,195,11.0,17.0,-999,-99.99,,,-99.99,,2013-02-11 12:22:00,
2013-02-11 07:32:00,48.0,-99.9,29.69,SSW,198,7.0,17.0,-999,-99.99,,,-99.99,,2013-02-11 12:32:00,
2013-02-11 08:02:00,48.0,-99.9,29.68,South,184,7.0,16.0,-999,-99.99,,,-99.99,,2013-02-11 13:02:00,
2013-02-11 08:12:00,48.0,-99.9,-100.00,SSW,197,7.0,16.0,-999,-99.99,,,-99.99,,2013-02-11 13:12:00,
2013-02-11 08:22:00,49.0,-99.9,29.68,SSW,200,9.0,16.0,-999,-99.99,,,-99.99,,2013-02-11 13:22:00,
2013-02-11 08:42:00,50.0,-99.9,29.68,SSW,206,10.0,23.0,-999,-99.99,,,-99.99,,2013-02-11 13:42:00,
2013-02-11 08:52:00,-999.0,-99.9,-100.00,SSW,207,13.0,22.0,-999,-99.99,,,-99.99,,2013-02-11 13:52:00,
2013-02-11 09:12:00,-999.0,-99.9,-100.00,SSW,212,10.0,23.0,-999,-99.99,,,-99.99,,2013-02-11 14:12:00,
2013-02-11 09:22:00,51.0,-99.9,-100.00,SW,217,12.0,23.0,-999,-99.99,,,-99.99,,2013-02-11 14:22:00,
2013-02-11 09:33:00,51.0,-99.9,29.67,North,-999,-999.0,-999.0,-999,-99.99,,,-99.99,,2013-02-11 14:33:00,
2013-02-11 09:42:00,51.0,-99.9,-100.00,SW,221,15.0,31.0,-999,-99.99,,,-99.99,,2013-02-11 14:42:00,
2013-02-11 10:12:00,49.0,-99.9,29.68,WSW,251,26.0,33.0,-999,-99.99,,,-99.99,,2013-02-11 15:12:00,
2013-02-11 10:22:00,-999.0,-99.9,-100.00,WSW,251,30.0,34.0,-999,-99.99,,,-99.99,,2013-02-11 15:22:00,
2013-02-11 10:32:00,41.0,-99.9,29.68,North,-999,-999.0,-999.0,-999,-99.99,,,-99.99,,2013-02-11 15:32:00,
2013-02-11 10:43:00,39.0,-99.9,-100.00,West,276,21.0,26.0,-999,-99.99,,,-99.99,,2013-02-11 15:43:00,
2013-02-11 10:52:00,-999.0,-99.9,-100.00,West,275,21.0,25.0,-999,-99.99,,,-99.99,,2013-02-11 15:52:00,
2013-02-11 11:12:00,-999.0,-99.9,-100.00,West,276,26.0,29.0,-999,-99.99,,,-99.99,,2013-02-11 16:12:00,
2013-02-11 11:22:00,38.0,-99.9,29.70,West,273,21.0,26.0,-999,-99.99,,,-99.99,,2013-02-11 16:22:00,
2013-02-11 11:43:00,39.0,-99.9,-100.00,West,267,22.0,29.0,-999,-99.99,,,-99.99,,2013-02-11 16:43:00,
2013-02-11 12:02:00,41.0,-99.9,29.72,North,-999,-999.0,-999.0,-999,-99.99,,,-99.99,,2013-02-11 17:02:00,
2013-02-11 12:12:00,41.0,-99.9,-100.00,West,263,28.0,35.0,-999,-99.99,,,-99.99,,2013-02-11 17:12:00,
2013-02-11 12:22:00,-999.0,-99.9,-100.00,West,263,33.0,41.0,-999,-99.99,,,-99.99,,2013-02-11 17:22:00,
2013-02-11 12:32:00,41.0,-99.9,29.73,West,259,34.0,40.0,-999,-99.99,,,-99.99,,2013-02-11 17:32:00,
2013-02-11 12:42:00,39.0,-99.9,29.73,West,270,29.0,32.0,-999,-99.99,,,-99.99,,2013-02-11 17:42:00,
2013-02-11 13:02:00,38.0,-99.9,29.74,West,260,32.0,38.0,-999,-99.99,,,-99.99,,2013-02-11 18:02:00,
2013-02-11 13:12:00,38.0,-99.9,29.74,WSW,253,35.0,42.0,-999,-99.99,,,-99.99,,2013-02-11 18:12:00,
2013-02-11 13:32:00,39.0,-99.9,-100.00,WSW,252,28.0,37.0,-999,-99.99,,,-99.99,,2013-02-11 18:32:00,
2013-02-11 14:02:00,39.0,-99.9,29.75,WSW,246,26.0,45.0,-999,-99.99,,,-99.99,,2013-02-11 19:02:00,
2013-02-11 14:12:00,40.0,-99.9,-100.00,WSW,237,26.0,37.0,-999,-99.99,,,-99.99,,2013-02-11 19:12:00,
2013-02-11 14:42:00,39.0,-99.9,-100.00,WSW,256,32.0,46.0,-999,-99.99,,,-99.99,,2013-02-11 19:42:00,
2013-02-11 14:52:00,-999.0,-99.9,-100.00,West,261,26.0,34.0,-999,-99.99,,,-99.99,,2013-02-11 19:52:00,
2013-02-11 15:22:00,38.0,-99.9,29.77,WSW,258,29.0,38.0,-999,-99.99,,,-99.99,,2013-02-11 20:22:00,
2013-02-11 15:32:00,36.0,-99.9,29.78,North,-999,-999.0,-999.0,-999,-99.99,,,-99.99,,2013-02-11 20:32:00,
2013-02-11 15:42:00,37.0,-99.9,29.78,West,263,27.0,36.0,-999,-99.99,,,-99.99,,2013-02-11 20:42:00,
2013-02-11 15:52:00,-999.0,-99.9,-100.00,WSW,257,35.0,43.0,-999,-99.99,,,-99.99,,2013-02-11 20:52:00,
2013-02-11 16:02:00,37.0,-99.9,29.80,WSW,252,30.0,38.0,-999,-99.99,,,-99.99,,2013-02-11 21:02:00,
2013-02-11 16:12:00,36.0,-99.9,-100.00,West,259,30.0,37.0,-999,-99.99,,,-99.99,,2013-02-11 21:12:00,
2013-02-11 16:42:00,-999.0,-99.9,-100.00,WSW,255,33.0,36.0,-999,-99.99,,,-99.99,,2013-02-11 21:42:00,
2013-02-11 17:12:00,36.0,-99.9,29.83,WSW,243,23.0,33.0,-999,-99.99,,,-99.99,,2013-02-11 22:12:00,
2013-02-11 17:22:00,-999.0,-99.9,-100.00,WSW,246,29.0,39.0,-999,-99.99,,,-99.99,,2013-02-11 22:22:00,
2013-02-11 17:42:00,37.0,-99.9,-100.00,WSW,253,31.0,36.0,-999,-99.99,,,-99.99,,2013-02-11 22:42:00,
2013-02-11 18:02:00,37.0,-99.9,29.84,WSW,253,27.0,35.0,-999,-99.99,,,-99.99,,2013-02-11 23:02:00,
2013-02-11 18:12:00,-999.0,-99.9,-100.00,WSW,250,24.0,31.0,-999,-99.99,,,-99.99,,2013-02-11 23:12:00,
2013-02-11 18:42:00,36.0,-99.9,-100.00,WSW,257,25.0,32.0,-999,-99.99,,,-99.99,,2013-02-11 23:42:00,
2013-02-11 19:12:00,36.0,-99.9,-100.00,WSW,249,27.0,33.0,-999,-99.99,,,-99.99,,2013-02-12 00:12:00,
2013-02-11 19:22:00,-999.0,-99.9,-100.00,WSW,252,25.0,32.0,-999,-99.99,,,-99.99,,2013-02-12 00:22:00,
2013-02-11 19:32:00,36.0,-99.9,29.87,WSW,246,24.0,38.0,-999,-99.99,,,-99.99,,2013-02-12 00:32:00,
2013-02-11 19:43:00,36.0,-99.9,29.87,North,-999,-999.0,-999.0,-999,-99.99,,,-99.99,,2013-02-12 00:43:00,
2013-02-11 20:02:00,36.0,-99.9,29.87,WSW,256,30.0,38.0,-999,-99.99,,,-99.99,,2013-02-12 01:02:00,
2013-02-11 20:12:00,36.0,-99.9,29.87,West,259,28.0,33.0,-999,-99.99,,,-99.99,,2013-02-12 01:12:00,
2013-02-11 20:32:00,35.0,-99.9,-100.00,WSW,254,24.0,33.0,-999,-99.99,,,-99.99,,2013-02-12 01:32:00,
2013-02-11 20:42:00,35.0,-99.9,29.88,WSW,258,23.0,33.0,-999,-99.99,,,-99.99,,2013-02-12 01:42:00,
2013-02-11 21:12:00,-999.0,-99.9,-100.00,West,259,25.0,34.0,-999,-99.99,,,-99.99,,2013-02-12 02:12:00,
2013-02-11 21:22:00,35.0,-99.9,29.89,West,260,25.0,34.0,-999,-99.99,,,-99.99,,2013-02-12 02:22:00,
2013-02-11 21:32:00,35.0,-99.9,29.89,West,263,29.0,34.0,-999,-99.99,,,-99.99,,2013-02-12 02:32:00,
2013-02-11 21:42:00,34.0,-99.9,29.89,West,267,28.0,34.0,-999,-99.99,,,-99.99,,2013-02-12 02:42:00,
2013-02-11 22:02:00,34.0,-99.9,29.90,West,265,30.0,37.0,-999,-99.99,,,-99.99,,2013-02-12 03:02:00,
2013-02-11 22:11:00,34.0,-99.9,29.90,West,269,29.0,35.0,-999,-99.99,,,-99.99,,2013-02-12 03:11:00,
2013-02-11 22:42:00,-999.0,-99.9,-100.00,West,263,24.0,31.0,-999,-99.99,,,-99.99,,2013-02-12 03:42:00,
2013-02-11 23:11:00,34.0,-99.9,-100.00,West,265,23.0,28.0,-999,-99.99,,,-99.99,,2013-02-12 04:11:00,
2013-02-11 23:22:00,34.0,-99.9,29.91,West,264,22.0,30.0,-999,-99.99,,,-99.99,,2013-02-12 04:22:00,
2013-02-11 23:32:00,34.0,-99.9,29.91,West,264,20.0,28.0,-999,-99.99,,,-99.99,,2013-02-12 04:32:00,
2013-02-11 23:42:00,34.0,-99.9,-100.00,West,263,25.0,30.0,-999,-99.99,,,-99.99,,2013-02-12 04:42:00,
2013-02-11 23:52:00,-999.0,-99.9,-100.00,West,267,26.0,30.0,-999,-99.99,,,-99.99,,2013-02-12 04:52:00,